User: anonymous   Login
Location: Karaa?a�
(36.7158°N, 30.4165°E)
Time: 23:04:17
(UTC+00:00)
Language:

Nadezhda 1 Rocket - Orbit

View from above orbital plane
View from above orbital plane
View from above satellite
View from above satellite

Ground track
Ground track

The orbit data is extracted from the following two-line orbital elements,

1 20104U 89050B   20188.41053833 -.00000003 +00000-0 -18023-4 0  9998
2 20104 082.9555 064.1136 0042512 302.4842 057.2209 13.77318804557904
Epoch (UTC): 06 July 2020 09:51:10
Eccentricity: 0.0042512
inclination: 82.9555°
perigee height: 942 km
apogee height: 1004 km
right ascension of ascending node: 64.1136°
argument of perigee: 302.4842°
revolutions per day: 13.77318804
mean anomaly at epoch: 57.2209°
orbit number at epoch: 55790

The dashed part of the orbit path shows where the satellite is in the earth's shadow,  

DLR